When you browse on this site, cookies collect data to enhance your experience and personalize the content and advertising you see.
Visit our Privacy Policy to learn more. By continuing to use the site, you agree to this use of cookies and data.
  • en Suisse
  • Liste des pays
  • À 7 jours
  • Température de l'eau
  • Carte satellitaire
  • Carte météo
  • Widgets météo
  • user-avatar
    Se connecter

    Météo par heure à Mahdia

    Ce jour, 23 Juillet, Mardi

    Heure Température Précipitation Vent Pression Humidité
    00:00 +25°C° 0 mm 1 m/s 764 mmHg 61%
    01:00 +24°C° 0 mm 1 m/s 764 mmHg 63%
    02:00 +24°C° 0 mm 1 m/s 764 mmHg 60%
    03:00 +24°C° 0 mm 2 m/s 763 mmHg 57%
    04:00 +24°C° 0 mm 3 m/s 762 mmHg 54%
    05:00 +26°C° 0 mm 3 m/s 763 mmHg 52%
    06:00 +27°C° 0 mm 3 m/s 763 mmHg 50%
    07:00 +29°C° 0 mm 3 m/s 763 mmHg 48%
    08:00 +30°C° 0 mm 3 m/s 763 mmHg 43%
    09:00 +33°C° 0 mm 4 m/s 763 mmHg 38%
    10:00 +35°C° 0 mm 4 m/s 763 mmHg 33%
    11:00 +35°C° 0 mm 4 m/s 763 mmHg 32%
    12:00 +36°C° 0 mm 4 m/s 763 mmHg 32%
    13:00 +36°C° 0 mm 4 m/s 763 mmHg 32%
    14:00 +36°C° 0 mm 4 m/s 762 mmHg 33%
    15:00 +36°C° 0 mm 4 m/s 762 mmHg 34%
    16:00 +35°C° 0 mm 4 m/s 762 mmHg 35%
    17:00 +34°C° 0 mm 4 m/s 762 mmHg 39%
    18:00 +33°C° 0 mm 3 m/s 762 mmHg 44%
    19:00 +30°C° 0 mm 3 m/s 762 mmHg 49%
    20:00 +29°C° 0 mm 2 m/s 762 mmHg 57%
    21:00 +27°C° 0 mm 2 m/s 762 mmHg 65%
    22:00 +26°C° 0 mm 1 m/s 762 mmHg 72%
    23:00 +25°C° 0 mm 1 m/s 762 mmHg 72%

    Demain, 24 Juillet, Mercredi

    Heure Température Précipitation Vent Pression Humidité
    00:00 +25°C° 0 mm 1 m/s 762 mmHg 71%
    01:00 +25°C° 0 mm 1 m/s 762 mmHg 71%
    02:00 +24°C° 0 mm 2 m/s 761 mmHg 68%
    03:00 +24°C° 0 mm 2 m/s 761 mmHg 65%
    04:00 +24°C° 0 mm 2 m/s 761 mmHg 63%
    05:00 +26°C° 0 mm 2 m/s 761 mmHg 57%
    06:00 +27°C° 0 mm 2 m/s 761 mmHg 52%
    07:00 +29°C° 0 mm 2 m/s 761 mmHg 47%
    08:00 +31°C° 0 mm 2 m/s 761 mmHg 41%
    09:00 +32°C° 0 mm 2 m/s 761 mmHg 35%
    10:00 +35°C° 0 mm 2 m/s 761 mmHg 29%
    11:00 +36°C° 0 mm 2 m/s 761 mmHg 28%
    12:00 +36°C° 0 mm 2 m/s 761 mmHg 28%
    13:00 +37°C° 0 mm 3 m/s 761 mmHg 27%
    14:00 +37°C° 0 mm 3 m/s 760 mmHg 28%
    15:00 +36°C° 0 mm 3 m/s 760 mmHg 28%
    16:00 +36°C° 0 mm 3 m/s 760 mmHg 29%
    17:00 +35°C° 0 mm 3 m/s 760 mmHg 32%
    18:00 +34°C° 0 mm 3 m/s 760 mmHg 36%
    19:00 +33°C° 0 mm 3 m/s 760 mmHg 39%
    20:00 +30°C° 0 mm 2 m/s 760 mmHg 46%
    21:00 +28°C° 0 mm 1 m/s 761 mmHg 54%
    22:00 +26°C° 0 mm 1 m/s 761 mmHg 61%
    23:00 +26°C° 0 mm 1 m/s 761 mmHg 61%

    Après-demain, 25 Juillet, Jeudi

    Heure Température Précipitation Vent Pression Humidité
    00:00 +25°C° 0 mm 1 m/s 761 mmHg 62%
    01:00 +25°C° 0 mm 1 m/s 760 mmHg 63%
    02:00 +24°C° 0 mm 1 m/s 760 mmHg 65%
    03:00 +24°C° 0 mm 1 m/s 760 mmHg 67%
    04:00 +24°C° 0 mm 1 m/s 760 mmHg 70%
    05:00 +26°C° 0 mm 1 m/s 760 mmHg 62%
    06:00 +25°C° 0 mm 0 m/s 760 mmHg 55%
    07:00 +27°C° 0 mm 0 m/s 761 mmHg 48%
    08:00 +29°C° 0 mm 0 m/s 761 mmHg 41%
    09:00 +33°C° 0 mm 1 m/s 761 mmHg 35%
    10:00 +35°C° 0 mm 1 m/s 761 mmHg 28%
    11:00 +36°C° 0 mm 2 m/s 761 mmHg 28%
    12:00 +37°C° 0 mm 3 m/s 761 mmHg 29%
    13:00 +37°C° 0 mm 5 m/s 761 mmHg 29%
    14:00 +37°C° 0 mm 5 m/s 760 mmHg 30%
    15:00 +37°C° 0 mm 5 m/s 760 mmHg 30%
    16:00 +38°C° 0 mm 6 m/s 759 mmHg 30%
    17:00 +35°C° 0 mm 6 m/s 759 mmHg 37%
    18:00 +34°C° 0 mm 6 m/s 759 mmHg 44%
    19:00 +32°C° 0 mm 6 m/s 759 mmHg 51%
    20:00 +30°C° 0 mm 6 m/s 760 mmHg 57%
    21:00 +29°C° 0 mm 5 m/s 760 mmHg 62%
    22:00 +28°C° 0 mm 5 m/s 761 mmHg 68%
    23:00 +28°C° 0 mm 4 m/s 760 mmHg 69%

    26 Juillet, Vendredi

    Heure Température Précipitation Vent Pression Humidité
    00:00 +28°C° 0 mm 4 m/s 760 mmHg 70%
    01:00 +27°C° 0 mm 4 m/s 760 mmHg 71%
    02:00 +27°C° 0 mm 3 m/s 760 mmHg 73%
    03:00 +26°C° 0 mm 3 m/s 759 mmHg 75%
    04:00 +26°C° 0 mm 3 m/s 759 mmHg 76%
    05:00 +27°C° 0 mm 3 m/s 759 mmHg 72%
    06:00 +28°C° 0 mm 3 m/s 759 mmHg 68%
    07:00 +29°C° 0 mm 3 m/s 759 mmHg 63%
    08:00 +32°C° 0 mm 4 m/s 759 mmHg 53%
    09:00 +35°C° 0 mm 5 m/s 759 mmHg 43%
    10:00 +38°C° 0 mm 6 m/s 759 mmHg 33%
    11:00 +39°C° 0 mm 7 m/s 759 mmHg 32%
    12:00 +40°C° 0 mm 7 m/s 758 mmHg 30%
    13:00 +40°C° 0 mm 8 m/s 758 mmHg 29%
    14:00 +40°C° 0 mm 9 m/s 757 mmHg 30%
    15:00 +39°C° 0 mm 9 m/s 757 mmHg 32%
    16:00 +38°C° 0 mm 9 m/s 756 mmHg 34%
    17:00 +37°C° 0 mm 9 m/s 756 mmHg 40%
    18:00 +34°C° 0 mm 9 m/s 756 mmHg 47%
    19:00 +32°C° 0 mm 9 m/s 756 mmHg 53%
    20:00 +32°C° 0 mm 8 m/s 757 mmHg 57%
    21:00 +31°C° 0 mm 8 m/s 757 mmHg 61%
    22:00 +29°C° 0 mm 7 m/s 757 mmHg 65%
    23:00 +29°C° 0 mm 6 m/s 757 mmHg 67%

    27 Juillet, Samedi

    Heure Température Précipitation Vent Pression Humidité
    00:00 +28°C° 0 mm 6 m/s 757 mmHg 69%
    01:00 +28°C° 0 mm 5 m/s 757 mmHg 71%
    02:00 +27°C° 0 mm 5 m/s 756 mmHg 73%
    03:00 +27°C° 0 mm 4 m/s 756 mmHg 76%
    04:00 +26°C° 0 mm 4 m/s 755 mmHg 79%
    05:00 +27°C° 0 mm 4 m/s 755 mmHg 74%
    06:00 +28°C° 0 mm 4 m/s 755 mmHg 70%
    07:00 +29°C° 0 mm 4 m/s 755 mmHg 65%
    08:00 +33°C° 0 mm 4 m/s 755 mmHg 55%
    09:00 +35°C° 0 mm 4 m/s 756 mmHg 45%
    10:00 +39°C° 0 mm 5 m/s 756 mmHg 35%
    11:00 +40°C° 0 mm 6 m/s 755 mmHg 34%
    12:00 +41°C° 0 mm 6 m/s 755 mmHg 33%
    13:00 +41°C° 0 mm 7 m/s 754 mmHg 33%
    14:00 +40°C° 0 mm 8 m/s 754 mmHg 36%
    15:00 +39°C° 0 mm 9 m/s 753 mmHg 39%
    16:00 +38°C° 0 mm 10 m/s 753 mmHg 43%
    17:00 +37°C° 0 mm 9 m/s 753 mmHg 45%
    18:00 +35°C° 0 mm 9 m/s 752 mmHg 48%
    19:00 +34°C° 0 mm 8 m/s 752 mmHg 50%
    20:00 +33°C° 0 mm 7 m/s 753 mmHg 53%
    21:00 +32°C° 0 mm 5 m/s 753 mmHg 57%
    22:00 +30°C° 0 mm 4 m/s 754 mmHg 60%
    23:00 +30°C° 0 mm 5 m/s 754 mmHg 60%

    28 Juillet, Dimanche

    Heure Température Précipitation Vent Pression Humidité
    00:00 +29°C° 0 mm 7 m/s 754 mmHg 61%
    01:00 +29°C° 0 mm 8 m/s 754 mmHg 62%
    02:00 +29°C° 0 mm 7 m/s 754 mmHg 63%
    03:00 +28°C° 0 mm 7 m/s 754 mmHg 65%
    04:00 +28°C° 0 mm 7 m/s 754 mmHg 66%
    05:00 +28°C° 0 mm 7 m/s 755 mmHg 65%
    06:00 +28°C° 0 mm 8 m/s 755 mmHg 65%
    07:00 +28°C° 0 mm 8 m/s 755 mmHg 64%
    08:00 +31°C° 0 mm 8 m/s 756 mmHg 57%
    09:00 +33°C° 0 mm 8 m/s 756 mmHg 51%
    10:00 +34°C° 0 mm 8 m/s 756 mmHg 44%
    11:00 +35°C° 0 mm 7 m/s 756 mmHg 40%
    12:00 +38°C° 0 mm 6 m/s 756 mmHg 36%
    13:00 +39°C° 0 mm 6 m/s 756 mmHg 31%
    14:00 +38°C° 0 mm 7 m/s 756 mmHg 35%
    15:00 +37°C° 0 mm 8 m/s 756 mmHg 38%
    16:00 +35°C° 0 mm 9 m/s 756 mmHg 42%
    17:00 +34°C° 0 mm 9 m/s 756 mmHg 46%
    18:00 +32°C° 0 mm 10 m/s 756 mmHg 50%
    19:00 +31°C° 0 mm 10 m/s 756 mmHg 54%
    20:00 +29°C° 0 mm 10 m/s 757 mmHg 56%
    21:00 +29°C° 0 mm 9 m/s 758 mmHg 57%
    22:00 +28°C° 0 mm 8 m/s 758 mmHg 59%
    23:00 +27°C° 0 mm 8 m/s 758 mmHg 61%
    Voir plus